Temp_Advection
nan nan nan nan nan nan nan nan nan nan nan nan nan nan nan nan nan nan nan nan nan nan nan nan nan nan nan
nan -1 -1 -1 -1 -0 -1 -1 -1 -1 -1 -1 -1 -0 -1 -1 -1 -1 -2 -1 -0 -1 -3 -1 -1 -1 nan
nan -1 -1 -1 -1 -1 -1 -1 -1 -1 -2 -1 -1 -1 -1 -1 -1 -1 -1 -1 -1 -1 -2 -1 -1 -1 nan
nan -1 -1 -1 -1 -1 -1 -1 -1 -1 -1 -2 -2 -1 -1 -0 -1 -2 -2 -2 -1 -0 -1 -1 -1 -1 nan
nan -1 -1 -1 -1 -1 -1 -1 -1 -1 -1 -1 -2 -1 -1 -1 -1 -1 -1 -2 -2 -1 -1 -1 -1 -1 nan
nan 0 -0 -1 -1 -0 -1 -1 -1 -1 -1 -1 -1 -2 -1 -1 -1 -1 -1 -1 -1 -2 -2 -1 -1 -1 nan
nan -0 -0 -0 -1 -1 -0 -0 -1 -1 -1 -2 -1 -1 -1 -1 -1 -1 -1 -1 -1 -1 -2 -1 -0 -0 nan
nan 0 -0 -1 -0 0 -1 -1 -1 -1 -1 -1 -1 -1 -1 -1 -1 -0 -0 -1 -1 -1 -2 -1 -1 -1 nan
nan -0 -0 -0 -0 -0 -1 -1 -1 -0 -1 -1 -1 -1 -1 -2 -1 -1 -1 -0 -1 -2 -2 -2 -2 -1 nan
nan -1 -1 -1 -1 -0 -1 -1 -1 -1 -0 -0 -1 -1 -1 -1 -0 -0 -1 -1 -2 -2 -2 -2 -1 -1 nan
nan -0 -0 -0 -1 -0 -0 -0 -1 -1 -0 -0 -0 -0 -1 -1 -1 -1 -1 -2 -2 -1 0 -1 -0 -1 nan
nan -0 -0 -0 -0 -1 -0 0 0 -0 -0 -0 -0 -0 -0 -0 -0 -1 -1 -1 -1 0 1 0 0 0 nan
nan -0 -0 -0 -0 -0 -0 -0 -0 0 0 -0 -0 0 0 0 -0 -1 -1 -1 -0 1 0 1 1 2 nan
nan -0 -0 -0 -0 -0 -0 -0 -0 -0 -0 -0 -0 -0 -0 -0 -0 -0 -0 -0 0 1 0 0 1 2 nan
nan -0 -0 -0 -0 -0 0 -0 0 -0 -0 -0 -0 -0 0 0 -0 -0 -0 0 1 1 1 0 0 0 nan
nan -0 -0 -0 -0 -0 -0 -0 -0 -0 -0 -0 -0 0 -0 -0 0 0 0 0 1 1 1 0 0 1 nan
nan nan nan nan nan nan nan nan nan nan nan nan nan nan nan nan nan nan nan nan nan nan nan nan nan nan nan
Wind_Speed
42 43 44 43 42 42 38 40 41 43 43 42 43 44 45 43 43 39 40 36 32 33 32 33 28 31 32
42 44 43 43 42 40 41 42 40 39 40 42 43 42 41 41 39 36 39 35 30 33 35 33 30 29 29
44 43 42 41 44 40 40 42 40 41 40 40 40 40 42 38 37 34 32 31 32 32 32 34 34 30 30
40 42 41 42 37 40 48 45 48 44 44 42 38 40 34 31 36 38 35 36 33 30 30 30 30 33 30
43 42 38 40 41 47 46 46 47 42 40 46 40 41 43 38 37 36 34 36 31 30 29 31 31 34 35
36 35 40 43 49 42 46 44 45 42 37 50 44 40 40 36 35 31 35 32 32 33 33 33 33 34 37
42 40 46 43 49 47 42 45 46 50 42 49 37 41 33 41 36 35 36 32 32 30 32 34 35 36 38
40 43 44 47 43 45 46 48 46 41 35 39 41 35 44 36 42 36 34 32 29 29 32 34 37 40 40
39 40 39 38 37 38 41 39 40 37 38 37 37 38 44 42 37 29 27 26 30 33 36 36 37 39 41
42 39 37 35 31 32 37 39 38 41 36 37 40 36 36 33 15 27 38 33 30 27 27 29 31 33 35
39 39 37 35 37 38 37 37 40 41 40 34 38 36 33 35 31 39 35 29 27 9 3 13 14 20 28
37 38 38 39 42 39 37 36 36 38 36 32 36 35 33 30 32 33 31 20 20 2 10 7 10 15 17
38 39 41 42 40 40 39 35 33 31 29 26 25 25 25 27 28 29 22 20 6 9 7 13 21 28 35
38 41 40 39 40 38 37 36 36 30 21 18 16 15 15 20 21 16 12 10 5 11 16 19 26 34 39
40 39 39 39 37 33 34 30 20 21 21 18 12 9 5 13 7 5 5 1 12 13 15 22 23 25 34
38 38 39 36 34 32 29 23 20 21 23 24 17 7 7 4 4 3 4 13 17 22 25 30 31 29 30
39 38 34 32 31 31 25 21 21 22 22 22 17 11 10 9 12 10 15 20 24 29 31 35 36 33 33
Wind_Direction
299 301 303 305 306 306 306 303 301 298 296 295 296 294 294 293 288 282 285 284 280 279 274 273 269 262 257
302 304 303 305 306 304 309 305 302 300 298 297 296 292 296 290 288 284 282 282 278 281 271 266 268 264 263
301 302 303 306 305 304 309 310 303 301 301 300 295 292 296 288 289 286 287 281 280 285 274 265 263 264 260
300 303 305 308 306 306 309 308 303 303 302 299 297 294 291 295 299 293 286 290 284 285 270 265 261 255 253
303 302 302 309 309 308 302 303 301 305 302 305 304 297 300 298 298 300 294 288 282 273 265 265 260 254 246
300 306 306 305 305 303 303 303 303 305 305 300 302 299 298 299 302 292 296 290 285 273 261 260 259 263 252
301 303 304 301 304 303 301 300 297 299 302 298 302 299 295 301 301 295 291 290 287 278 265 258 256 259 256
297 302 300 303 302 300 299 297 298 300 304 297 306 297 307 297 302 298 299 292 285 281 267 256 251 253 255
303 302 301 299 299 301 302 302 299 302 305 302 302 300 303 299 308 300 281 281 287 277 270 261 255 255 254
312 310 310 312 307 304 304 301 301 304 304 303 303 305 305 308 295 292 300 302 301 292 276 253 244 243 240
314 315 314 312 313 312 309 304 300 296 305 300 298 298 293 298 302 302 308 312 313 318 34 235 229 228 236
315 313 314 316 317 315 315 313 309 302 306 303 295 295 292 296 300 303 311 319 327 107 124 183 193 204 213
315 315 318 320 321 322 321 318 313 312 314 309 299 294 290 291 296 302 312 333 346 109 146 159 140 139 138
316 320 323 324 324 325 324 330 322 320 318 316 310 307 309 312 296 300 325 312 81 117 124 118 127 132 132
324 325 325 327 328 337 337 336 335 335 338 337 313 283 8 1 324 306 289 18 121 116 124 108 108 109 114
328 327 325 328 334 339 346 344 349 350 348 349 353 350 283 318 54 68 130 132 119 114 112 111 108 111 115
330 328 332 338 342 344 343 349 349 350 351 1 13 31 50 68 71 110 125 129 127 115 115 109 109 109 110
Height
1347 1338 1332 1328 1322 1318 1313 1308 1302 1297 1292 1287 1281 1275 1270 1266 1262 1259 1256 1254 1254 1252 1251 1251 1252 1255 1258
1338 1332 1327 1321 1314 1309 1303 1298 1292 1287 1282 1277 1272 1266 1260 1255 1253 1250 1247 1245 1244 1242 1241 1242 1242 1241 1242
1332 1327 1320 1314 1306 1300 1294 1288 1283 1278 1272 1268 1263 1258 1251 1245 1242 1240 1237 1235 1234 1233 1233 1234 1233 1234 1234
1327 1319 1314 1306 1302 1294 1283 1279 1272 1268 1262 1256 1252 1247 1242 1237 1233 1230 1227 1226 1225 1225 1226 1226 1226 1229 1230
1319 1312 1305 1298 1294 1288 1281 1269 1259 1260 1252 1245 1241 1237 1232 1228 1224 1221 1218 1215 1214 1215 1215 1216 1219 1221 1222
1310 1305 1298 1294 1287 1280 1272 1263 1250 1252 1246 1235 1234 1227 1222 1218 1216 1212 1209 1206 1203 1203 1205 1206 1208 1211 1213
1306 1300 1293 1286 1280 1269 1263 1257 1248 1238 1239 1225 1224 1217 1213 1209 1206 1202 1198 1195 1191 1189 1191 1194 1196 1198 1200
1301 1292 1286 1278 1272 1264 1255 1246 1239 1233 1232 1219 1216 1207 1203 1199 1195 1191 1188 1184 1180 1177 1176 1176 1179 1183 1185
1292 1284 1278 1272 1265 1256 1247 1240 1229 1225 1222 1216 1207 1199 1196 1189 1185 1182 1177 1174 1171 1167 1164 1164 1166 1170 1172
1279 1273 1268 1262 1257 1251 1243 1234 1225 1215 1215 1210 1201 1197 1185 1182 1178 1175 1171 1166 1162 1158 1152 1150 1153 1157 1158
1272 1266 1260 1254 1247 1242 1236 1229 1220 1210 1207 1203 1196 1192 1188 1177 1173 1170 1166 1161 1156 1149 1145 1144 1145 1147 1150
1267 1260 1253 1245 1238 1232 1226 1219 1213 1205 1199 1196 1189 1186 1181 1176 1171 1165 1162 1158 1153 1148 1144 1142 1142 1144 1146
1262 1254 1247 1239 1231 1223 1217 1210 1203 1197 1192 1188 1184 1181 1178 1174 1170 1164 1161 1156 1154 1150 1147 1145 1144 1144 1144
1258 1250 1241 1233 1226 1219 1211 1203 1196 1190 1187 1182 1179 1176 1173 1170 1166 1163 1161 1161 1158 1155 1152 1150 1149 1148 1149
1253 1245 1237 1229 1222 1214 1207 1200 1194 1189 1183 1179 1175 1173 1172 1169 1164 1163 1163 1162 1162 1161 1158 1157 1158 1160 1158
1249 1242 1234 1227 1219 1213 1206 1201 1195 1190 1184 1178 1173 1170 1169 1170 1167 1165 1165 1166 1167 1166 1165 1164 1168 1172 1174
1246 1239 1232 1225 1219 1212 1208 1202 1197 1191 1186 1181 1175 1172 1171 1171 1170 1169 1169 1171 1172 1172 1173 1175 1177 1183 1187